CW3319 Weather Reports


Display with metric or nautical units.
time (UTC)temp
F
wind
direction
speed
MPH
gust
MPH
rain 1hr
in
rain 24hr
in
rain mn
in
humidity
%
barometer
mb
20260904064902 76 147 0.0 0.0 0.00 0.00 0.00 91 1006.2
20260904063902 76 59 0.0 0.0 0.00 0.00 0.00 91 1006.3
20260904062902 76 123 0.0 0.0 0.00 0.00 0.00 91 1006.3
20260904061902 76 118 0.0 0.0 0.00 0.00 0.00 91 1006.3
20260904060932 77 73 0.0 0.0 0.00 0.00 0.00 91 1006.4
20260904055902 77 57 0.0 0.0 0.00 0.00 0.00 90 1006.4
20260904054902 77 71 0.0 0.0 0.00 0.00 0.00 90 1006.5
20260904053902 77 66 1.0 2.0 0.00 0.00 0.00 90 1006.4
20260904052902 77 59 2.0 3.0 0.00 0.00 0.00 90 1006.3
20260904051902 77 184 0.0 0.0 0.00 0.00 0.00 90 1006.2
20260904050902 77 202 1.0 5.0 0.00 0.00 0.00 89 1006.1
20260904045901 77 205 3.0 5.0 0.00 0.00 0.02 89 1006.1
20260904044903 77 195 2.0 4.0 0.00 0.00 0.02 89 1006.2
20260904043902 78 194 1.0 2.0 0.00 0.00 0.02 89 1006.1
20260904042901 78 158 1.0 3.0 0.00 0.00 0.02 88 1006.2
20260904041902 78 153 1.0 4.0 0.00 0.00 0.02 88 1006.1
20260904040903 78 63 0.0 0.0 0.00 0.00 0.02 88 1006.1
20260904035902 78 136 1.0 3.0 0.00 0.00 0.02 87 1006.1
20260904034902 78 92 1.0 2.0 0.00 0.00 0.02 87 1006.2
20260904033932 78 84 1.0 3.0 0.00 0.00 0.02 87 1006.2
20260904032902 78 87 1.0 3.0 0.00 0.00 0.02 86 1006.1
20260904031902 78 99 1.0 3.0 0.00 0.00 0.02 86 1006.2
20260904030903 78 116 0.0 0.0 0.00 0.00 0.02 85 1006.2
20260904025902 78 72 1.0 3.0 0.00 0.00 0.02 84 1006.4
20260904024903 78 87 0.0 1.0 0.00 0.00 0.02 84 1006.4
20260904023902 79 82 1.0 2.0 0.00 0.00 0.02 83 1006.4
20260904022932 79 71 2.0 3.0 0.00 0.00 0.02 82 1006.4
20260904021902 79 87 1.0 2.0 0.00 0.00 0.02 82 1006.3
20260904020902 80 74 0.0 1.0 0.00 0.00 0.02 81 1006.2
20260904015903 80 72 1.0 2.0 0.00 0.00 0.02 80 1006.3
20260904014902 80 67 1.0 1.0 0.00 0.00 0.02 79 1006.2
20260904013902 80 68 1.0 2.0 0.00 0.00 0.02 79 1006.1
20260904012902 81 98 1.0 2.0 0.00 0.00 0.02 78 1005.9
20260904011902 81 210 0.0 1.0 0.00 0.00 0.02 77 1005.7
20260904010902 81 137 2.0 4.0 0.00 0.00 0.02 77 1005.6
20260904005902 82 164 0.0 3.0 0.00 0.00 0.02 76 1005.6
20260904004902 82 232 0.0 1.0 0.00 0.00 0.02 75 1005.5
20260904003902 82 179 2.0 5.0 0.00 0.00 0.02 74 1005.5
20260904002932 82 212 0.0 2.0 0.00 0.00 0.02 73 1005.6
20260904001902 83 199 2.0 3.0 0.00 0.00 0.02 73 1005.7
20260904000902 83 161 1.0 4.0 0.00 0.00 0.02 72 1005.8
20260903235902 83 190 0.0 2.0 0.00 0.00 0.02 72 1005.7
20260903234902 83 212 1.0 4.0 0.00 0.00 0.02 72 1005.7
20260903233902 83 141 3.0 8.0 0.00 0.00 0.02 71 1005.5
20260903232902 83 149 1.0 2.0 0.00 0.00 0.02 72 1005.4
20260903231902 83 74 1.0 3.0 0.00 0.00 0.02 72 1005.1
20260903230902 84 163 3.0 6.0 0.00 0.00 0.02 72 1005.0
20260903225902 84 114 1.0 4.0 0.00 0.00 0.02 71 1005.0
20260903224902 84 126 1.0 2.0 0.00 0.00 0.02 71 1005.0
20260903223902 83 140 2.0 4.0 0.00 0.00 0.02 71 1005.0
20260903222902 83 201 4.0 6.0 0.00 0.00 0.02 72 1005.1
20260903221902 83 234 2.0 8.0 0.00 0.00 0.02 72 1005.0
20260903220902 82 134 4.0 8.0 0.00 0.00 0.02 73 1005.1
20260903215902 82 146 1.0 4.0 0.00 0.00 0.02 74 1005.3
20260903214902 82 173 3.0 11.0 0.00 0.00 0.02 75 1005.4
20260903213902 82 128 3.0 9.0 0.00 0.00 0.02 74 1005.3
20260903212932 84 65 2.0 3.0 0.00 0.00 0.01 70 1005.1
20260903211902 85 86 1.0 3.0 0.00 0.00 0.00 69 1005.8
20260903210902 85 79 3.0 7.0 0.00 0.00 0.00 69 1006.1
20260903205932 86 100 1.0 2.0 0.00 0.00 0.00 69 1006.1
20260903204902 86 124 1.0 4.0 0.00 0.00 0.00 69 1005.9
20260903203902 86 115 3.0 6.0 0.00 0.00 0.00 70 1006.0
20260903202902 86 77 1.0 3.0 0.00 0.00 0.00 70 1005.8
20260903201902 86 46 1.0 2.0 0.00 0.00 0.00 70 1005.9
20260903200902 86 83 1.0 4.0 0.00 0.00 0.00 70 1005.7
20260903195932 86 90 3.0 7.0 0.00 0.00 0.00 70 1006.1
20260903194932 85 148 2.0 7.0 0.00 0.00 0.00 73 1006.2
20260903193902 84 132 3.0 8.0 0.00 0.00 0.00 73 1006.2
20260903192902 83 90 4.0 7.0 0.00 0.00 0.00 74 1006.5
20260903191932 82 137 1.0 4.0 0.00 0.00 0.00 74 1006.7
20260903190902 81 95 0.0 2.0 0.00 0.00 0.00 74 1007.1
20260903185902 80 44 3.0 5.0 0.00 0.00 0.00 76 1006.9
20260903184901 79 69 5.0 8.0 0.00 0.00 0.00 82 1006.8
20260903183902 78 91 1.0 2.0 0.00 0.00 0.00 79 1007.2
20260903182902 79 69 2.0 4.0 0.00 0.00 0.00 80 1007.0
20260903182002 79 122 0.0 1.0 0.00 0.00 0.00 78 1007.3
20260903180902 79 65 1.0 2.0 0.00 0.00 0.00 78 1006.7
20260903175902 79 71 2.0 6.0 0.00 0.00 0.00 78 1006.9
20260903174902 79 77 4.0 8.0 0.00 0.00 0.00 80 1006.8
20260903173902 78 75 3.0 6.0 0.00 0.00 0.00 81 1007.0
20260903172902 78 74 2.0 3.0 0.00 0.00 0.00 79 1007.3
20260903171902 78 123 1.0 3.0 0.00 0.00 0.00 78 1007.7
20260903170902 79 147 1.0 2.0 0.00 0.00 0.00 77 1007.7
20260903165902 80 176 1.0 2.0 0.00 0.00 0.00 76 1007.7
20260903164901 80 149 2.0 5.0 0.00 0.00 0.00 74 1007.6
20260903163902 80 73 0.0 0.0 0.00 0.00 0.00 75 1007.6
20260903162902 79 188 2.0 4.0 0.00 0.00 0.00 76 1007.5
20260903161932 78 127 1.0 4.0 0.00 0.00 0.00 78 1007.5
20260903160902 78 106 2.0 4.0 0.00 0.00 0.00 79 1007.4
20260903155903 77 145 1.0 2.0 0.00 0.00 0.00 80 1007.3
20260903154901 77 67 2.0 4.0 0.00 0.00 0.00 81 1007.5
20260903153902 77 199 1.0 4.0 0.00 0.00 0.00 80 1007.9
20260903153002 77 196 2.0 4.0 0.00 0.00 0.00 80 1007.6
20260903151902 77 95 1.0 3.0 0.00 0.00 0.00 81 1007.5
20260903150903 77 159 1.0 2.0 0.00 0.00 0.00 81 1007.5
20260903145901 76 171 3.0 6.0 0.00 0.00 0.00 82 1007.5
20260903144902 76 93 0.0 1.0 0.00 0.00 0.00 83 1007.5
20260903143903 76 97 0.0 2.0 0.00 0.00 0.00 83 1007.6
20260903142901 75 210 2.0 3.0 0.00 0.00 0.00 84 1007.4
20260903141902 75 187 1.0 2.0 0.00 0.00 0.00 86 1007.4
20260903140902 74 79 1.0 3.0 0.00 0.00 0.00 87 1007.6
20260903135902 74 78 2.0 4.0 0.00 0.00 0.00 87 1007.5
20260903134903 73 103 1.0 3.0 0.00 0.00 0.00 88 1007.6
20260903133902 73 103 1.0 2.0 0.00 0.00 0.00 89 1007.7
20260903132902 72 79 1.0 1.0 0.00 0.00 0.00 89 1007.6
20260903131902 72 95 1.0 2.0 0.00 0.00 0.00 89 1007.5
20260903130903 72 20 0.0 2.0 0.00 0.00 0.00 89 1007.6
20260903125901 72 116 1.0 4.0 0.00 0.00 0.00 90 1007.6
20260903124903 72 77 0.0 1.0 0.00 0.00 0.00 90 1007.6
20260903123902 72 201 1.0 2.0 0.00 0.00 0.00 90 1007.4
20260903122902 72 121 1.0 2.0 0.00 0.00 0.00 90 1007.3
20260903121902 73 232 1.0 2.0 0.00 0.00 0.00 90 1007.6
20260903120932 73 107 1.0 2.0 0.00 0.00 0.00 93 1007.7
20260903120001 73 107 1.0 2.0 0.00 0.00 0.00 93 1007.7
20260903114902 73 107 1.0 2.0 0.00 0.00 0.00 93 1007.7
20260903113902 73 107 1.0 2.0 0.00 0.00 0.00 93 1007.7
20260903112902 73 107 1.0 2.0 0.00 0.00 0.00 93 1007.7
20260903111902 73 107 1.0 2.0 0.00 0.00 0.00 93 1007.7
20260903110902 73 107 1.0 2.0 0.00 0.00 0.00 93 1007.7
20260903105902 73 86 2.0 3.0 0.00 0.00 0.00 93 1007.7
20260903104902 72 82 1.0 2.0 0.00 0.00 0.00 92 1007.9
20260903103901 72 174 0.0 1.0 0.00 0.00 0.00 92 1007.9
20260903102903 72 98 0.0 1.0 0.00 0.00 0.00 92 1007.8
20260903101902 72 70 0.0 1.0 0.00 0.00 0.00 92 1007.6
20260903100902 72 93 0.0 1.0 0.00 0.00 0.00 92 1007.4
20260903095932 72 68 0.0 1.0 0.00 0.00 0.00 91 1007.3
20260903094933 72 78 0.0 1.0 0.00 0.00 0.00 91 1007.4
20260903093903 72 81 1.0 2.0 0.00 0.00 0.00 91 1007.3
20260903092932 72 77 2.0 4.0 0.00 0.00 0.00 91 1007.3
20260903091932 73 74 3.0 3.0 0.00 0.00 0.00 90 1007.3
20260903090932 73 71 3.0 4.0 0.00 0.00 0.00 90 1007.2
20260903085902 73 69 0.0 0.0 0.00 0.00 0.00 90 1007.1
20260903084902 73 78 0.0 0.0 0.00 0.00 0.00 89 1007.3
20260903083903 73 72 0.0 0.0 0.00 0.00 0.00 89 1007.3
20260903082902 73 83 0.0 0.0 0.00 0.00 0.00 89 1007.2
20260903081902 73 71 0.0 0.0 0.00 0.00 0.00 88 1007.1
20260903080902 74 70 0.0 0.0 0.00 0.00 0.00 88 1007.3
20260903075902 74 62 0.0 0.0 0.00 0.00 0.00 88 1007.5
20260903075002 74 57 0.0 0.0 0.00 0.00 0.00 87 1007.5
20260903074002 74 71 1.0 2.0 0.00 0.00 0.00 87 1007.4
20260903072902 74 76 2.0 3.0 0.00 0.00 0.00 87 1007.7
20260903071902 74 59 1.0 1.0 0.00 0.00 0.00 87 1007.8
20260903070902 74 52 1.0 2.0 0.00 0.00 0.00 86 1007.8
20260903065902 74 69 1.0 2.0 0.00 0.00 0.00 86 1007.9